Regional Weather Roundup
Issued by NWS

Home | Current Version | Previous Version | Text Only | Print | Product List | Glossary Off
Versions: 1 2 3 4 5 6 7 8 9 10 11 12 13 14 15 16 17 18 19 20 21 22 23 24 25 26 27 28 29 30 31 32 33 34 35 36 37 38 39 40 41 42 43 44 45 46 47 48 49 50

000
ASUS44 KMEG 260010
RWRTN
TENNESSEE HOURLY STATE WEATHER ROUNDUP
NATIONAL WEATHER SERVICE MEMPHIS TN
700 PM CDT FRI JUL 25 2014

TNZ002-004-019-021-049-052-054-088>092-260100-
WEST TENNESSEE

CITY           SKY/WX    TMP DP  RH WIND       PRES   REMARKS
MEMPHIS INTL   PTSUNNY   85  60  42 NE9       29.99F
NWS MEMPHIS      N/A     83 N/A N/A MISG        N/A
JACKSON        PTSUNNY   80  66  62 CALM      29.98F
DYERSBURG      PTSUNNY   79  61  53 CALM      29.98F
UNION CITY     SUNNY     75  66  73 SE6       29.96F
PARIS          CLOUDY    75  66  73 CALM      29.97F
LEXINGTON      SUNNY     77  70  78 CALM      29.98F
SAVANNAH       SUNNY     81  70  69 CALM      30.00F
$$

TNZ008-025-027-028-033-062-065-066-260100-
NORTH MIDDLE TENNESSEE

CITY           SKY/WX    TMP DP  RH WIND       PRES   REMARKS
NASHVILLE      PTSUNNY   81  58  45 CALM      29.97F
DICKSON        PTSUNNY   75  63  64 S5        29.97F
PORTLAND       CLOUDY    77  63  61 SE5       29.95F
CLARKSVILLE    CLOUDY    80  58  46 S8        29.92F
LEBANON        MOCLDY    83  58  42 S3        29.97F
SMYRNA         PTCLDY    83  63  50 SW5       29.98F
MURFREESBORO   MOCLDY    83  57  40 CALM      29.99F
COOKEVILLE     CLEAR     77  66  69 CALM      30.03F
GALLATIN       MOCLDY    83  59  44 E3        29.98F
CROSSVILLE     PTCLDY    73  60  63 W3        30.07F
$$

TNZ061-075-076-078-094-096-097-260100-
SOUTH MIDDLE TENNESSEE

CITY           SKY/WX    TMP DP  RH WIND       PRES   REMARKS
LEWISBURG      MOCLDY    81  64  55 CALM      30.01F
FAYETTEVILLE   CLEAR     79  63  57 N8G22     30.02F
TULLAHOMA      CLEAR     77  61  57 N5        30.04F
WINCHESTER     CLEAR     79  63  57 N3        30.03S
MCMINNVILLE    CLEAR     77  66  69 CALM      30.03F
COLUMBIA       SUNNY     81  64  57 CALM      29.99F
SHELBYVILLE    CLEAR     81  64  57 CALM      30.02F
$$

TNZ017-018-042-046-047-260100-
NORTHEAST TENNESSEE

CITY           SKY/WX    TMP DP  RH WIND       PRES   REMARKS
TRI CITIES     PTCLDY    78  61  55 N5        30.05S
ELIZABETHTON   PTCLDY    73  66  78 CALM      30.05F
$$

TNZ012-013-036-069-073-074-260100-
CENTRAL EAST TENNESSEE

CITY           SKY/WX    TMP DP  RH WIND       PRES   REMARKS
KNOXVILLE      PTCLDY    79  61  53 SW6       30.01F
OAK RIDGE      PTCLDY    82  62  50 VRB3      30.02F
GATLINBURG     CLEAR     81  61  50 CALM      30.02S
MORRISTOWN     CLEAR     79  63  57 CALM      30.04F
$$

TNZ083-085-099-260100-
SOUTHEAST TENNESSEE

CITY           SKY/WX    TMP DP  RH WIND       PRES   REMARKS
CHATTANOOGA    MOCLDY    84  61  45 NW5       30.01S
$$

SKY/WX REPORTED AS FAIR MEANS FEW OR NO CLOUDS BELOW
12 THOUSAND FEET.



USA.gov is the U.S. government's official web portal to all federal, state and local government web resources and services.